{"data":{"norad_id":48781,"intl_designator":"2021-045Q","name":"ONEWEB-0232","alt_names":[],"object_type":"PAYLOAD","status":"ACTIVE","operator":null,"country":"UK","launch_date":"2021-05-28","launch_site_code":"VOSTO","launch_vehicle":null,"mission":null,"orbit_class":"UNKNOWN","rcs_meters":null,"size_class":null,"mass_kg":null,"dimensions":null,"purposes":["comms"],"wikipedia_slug":null,"has_3d_model":false,"image_url":null,"decayed_at":null,"tle_current":{"epoch":"2026-09-19T18:15:54.588672Z","epoch_age_seconds":85861,"freshness":"FRESH","line1":"1 48781U 21045Q   26262.76104848  .00000016  00000+0  86019-5 0  9991","line2":"2 48781  87.8993 240.3347 0001971  83.9643 276.1712 13.15546874257080","mean_motion":13.15546874,"eccentricity":0.0001971,"inclination_deg":87.8993,"raan_deg":240.3347,"arg_perigee_deg":83.9643,"mean_anomaly_deg":276.1712,"bstar":8.6019e-6,"rev_number":25708,"period_min":109.46018180421,"perigee_km":1200.2832042128,"apogee_km":1203.2712063926,"semimajor_km":7579.9142053027,"source":"CELESTRAK","updated_at":"2026-09-20T09:00:44.617913Z"}}}